Location: Unspecified
(0.0000°N, 0.0000°E)
Time: 07:50:59
(UTC+00:00)

Vanguard 1 - Pass Details

Date: 10 October 2022
Orbit: 650 x 3831 km, 34.2° (Epoch: 26 November)

Event Time Altitude Azimuth Distance (km) Brightness Sun altitude
Rises 03:50:47 0° 203° (SSW) 4,914 13.5 -28.9°
Reaches altitude 10° 03:56:18 10° 179° (S) 4,574 13.5 -27.5°
Maximum altitude 04:02:43 14° 149° (SSE) 4,889 14.0 -25.9°
Drops below altitude 10° 04:10:46 10° 122° (ESE) 5,974 14.9 -23.9°
Sets 04:20:29 0° 101° (E) 7,615 16.1 -21.5°
